Time,TemperatureF,DewpointF,PressureIn,WindDirection,WindDirectionDegrees,WindSpeedMPH,WindSpeedGustMPH,Humidity,HourlyPrecipIn,Conditions,Clouds,dailyrainin,SoftwareType,DateUTC
2013-10-02 00:01:00,77.2,71.3,29.88,South,173,3.0,3.0,82,0.00,,,0.00,Wunderground v.1.15,2013-10-02 05:01:00,
2013-10-02 00:10:00,76.9,71.0,29.88,SSE,148,2.0,2.0,82,0.00,,,0.00,Wunderground v.1.15,2013-10-02 05:10:00,
2013-10-02 00:16:00,76.8,71.2,29.88,SSE,154,2.0,2.0,83,0.00,,,0.00,Wunderground v.1.15,2013-10-02 05:16:00,
2013-10-02 00:25:00,76.5,70.9,29.88,SE,139,2.0,5.0,83,0.00,,,0.00,Wunderground v.1.15,2013-10-02 05:25:00,
2013-10-02 00:30:00,76.4,71.2,29.88,SE,146,3.0,3.0,84,0.00,,,0.00,Wunderground v.1.15,2013-10-02 05:30:00,
2013-10-02 00:35:00,76.2,71.0,29.88,SE,146,3.0,6.0,84,0.00,,,0.00,Wunderground v.1.15,2013-10-02 05:35:00,
2013-10-02 00:41:00,76.1,70.9,29.88,SSE,153,2.0,8.0,84,0.00,,,0.00,Wunderground v.1.15,2013-10-02 05:41:00,
2013-10-02 00:50:00,75.9,71.1,29.88,SSE,161,4.0,4.0,85,0.00,,,0.00,Wunderground v.1.15,2013-10-02 05:50:00,
2013-10-02 00:55:00,75.8,71.0,29.88,SSE,155,4.0,7.0,85,0.00,,,0.00,Wunderground v.1.15,2013-10-02 05:55:00,
2013-10-02 01:01:00,75.7,70.9,29.88,SE,144,2.0,2.0,85,0.00,,,0.00,Wunderground v.1.15,2013-10-02 06:01:00,
2013-10-02 01:10:00,75.5,71.0,29.88,SE,132,2.0,8.0,86,0.00,,,0.00,Wunderground v.1.15,2013-10-02 06:10:00,
2013-10-02 01:15:00,75.3,70.8,29.88,SE,142,4.0,8.0,86,0.00,,,0.00,Wunderground v.1.15,2013-10-02 06:15:00,
2013-10-02 01:21:00,75.2,70.7,29.88,SSE,147,2.0,5.0,86,0.00,,,0.00,Wunderground v.1.15,2013-10-02 06:21:00,
2013-10-02 01:26:00,75.1,71.0,29.88,SSE,150,2.0,5.0,87,0.00,,,0.00,Wunderground v.1.15,2013-10-02 06:26:00,
2013-10-02 01:35:00,74.9,70.8,29.88,SSE,148,3.0,3.0,87,0.00,,,0.00,Wunderground v.1.15,2013-10-02 06:35:00,
2013-10-02 01:40:00,74.8,70.7,29.88,SSE,148,1.0,1.0,87,0.00,,,0.00,Wunderground v.1.15,2013-10-02 06:40:00,
2013-10-02 01:45:00,74.7,70.6,29.89,SSE,150,0.0,1.0,87,0.00,,,0.00,Wunderground v.1.15,2013-10-02 06:45:00,
2013-10-02 01:51:00,74.6,70.8,29.88,SE,139,1.0,1.0,88,0.00,,,0.00,Wunderground v.1.15,2013-10-02 06:51:00,
2013-10-02 02:01:00,74.5,70.7,29.89,SSE,148,1.0,1.0,88,0.00,,,0.00,Wunderground v.1.15,2013-10-02 07:01:00,
2013-10-02 02:11:00,74.3,70.5,29.88,SSE,152,1.0,1.0,88,0.00,,,0.00,Wunderground v.1.15,2013-10-02 07:11:00,
2013-10-02 02:20:00,74.1,70.6,29.88,SSE,154,0.0,0.0,89,0.00,,,0.00,Wunderground v.1.15,2013-10-02 07:20:00,
2013-10-02 02:25:00,74.1,70.6,29.88,SSE,153,0.0,0.0,89,0.00,,,0.00,Wunderground v.1.15,2013-10-02 07:25:00,
2013-10-02 02:30:00,74.0,70.6,29.88,SSE,152,1.0,5.0,89,0.00,,,0.00,Wunderground v.1.15,2013-10-02 07:30:00,
2013-10-02 02:40:00,73.9,70.5,29.88,SSE,155,1.0,1.0,89,0.00,,,0.00,Wunderground v.1.15,2013-10-02 07:40:00,
2013-10-02 02:45:00,73.9,70.5,29.88,SSE,154,1.0,1.0,89,0.00,,,0.00,Wunderground v.1.15,2013-10-02 07:45:00,
2013-10-02 02:50:00,73.8,70.4,29.88,SSE,154,0.0,0.0,89,0.00,,,0.00,Wunderground v.1.15,2013-10-02 07:50:00,
2013-10-02 02:55:00,73.7,70.6,29.88,SSE,152,0.0,0.0,90,0.00,,,0.00,Wunderground v.1.15,2013-10-02 07:55:00,
2013-10-02 03:01:00,73.5,70.4,29.88,SSE,150,0.0,0.0,90,0.00,,,0.00,Wunderground v.1.15,2013-10-02 08:01:00,
2013-10-02 03:10:00,73.3,70.2,29.88,SSE,150,0.0,0.0,90,0.00,,,0.00,Wunderground v.1.15,2013-10-02 08:10:00,
2013-10-02 03:15:00,73.2,70.1,29.88,SSE,150,1.0,1.0,90,0.00,,,0.00,Wunderground v.1.15,2013-10-02 08:15:00,
2013-10-02 03:21:00,73.2,70.1,29.88,SSE,151,1.0,1.0,90,0.00,,,0.00,Wunderground v.1.15,2013-10-02 08:21:00,
2013-10-02 03:30:00,73.1,70.3,29.88,SSE,154,0.0,0.0,91,0.00,,,0.00,Wunderground v.1.15,2013-10-02 08:30:00,
2013-10-02 03:35:00,73.0,70.2,29.88,SSE,150,0.0,0.0,91,0.00,,,0.00,Wunderground v.1.15,2013-10-02 08:35:00,
2013-10-02 03:40:00,72.9,70.1,29.88,SSE,150,1.0,1.0,91,0.00,,,0.00,Wunderground v.1.15,2013-10-02 08:40:00,
2013-10-02 03:46:00,72.7,69.9,29.88,SSE,148,0.0,1.0,91,0.00,,,0.00,Wunderground v.1.15,2013-10-02 08:46:00,
2013-10-02 03:51:00,72.6,69.8,29.88,SE,144,0.0,0.0,91,0.00,,,0.00,Wunderground v.1.15,2013-10-02 08:51:00,
2013-10-02 04:01:00,72.5,69.7,29.88,SE,139,2.0,2.0,91,0.00,,,0.00,Wunderground v.1.15,2013-10-02 09:01:00,
2013-10-02 04:10:00,72.4,69.9,29.88,SE,140,2.0,6.0,92,0.00,,,0.00,Wunderground v.1.15,2013-10-02 09:10:00,
2013-10-02 04:15:00,72.4,69.9,29.88,SE,144,2.0,6.0,92,0.00,,,0.00,Wunderground v.1.15,2013-10-02 09:15:00,
2013-10-02 04:20:00,72.4,69.9,29.88,SE,142,2.0,2.0,92,0.00,,,0.00,Wunderground v.1.15,2013-10-02 09:20:00,
2013-10-02 04:25:00,72.4,69.9,29.88,SE,142,1.0,6.0,92,0.00,,,0.00,Wunderground v.1.15,2013-10-02 09:25:00,
2013-10-02 04:30:00,72.4,70.3,29.88,SE,146,2.0,2.0,93,0.00,,,0.00,Wunderground v.1.15,2013-10-02 09:30:00,
2013-10-02 04:36:00,72.5,70.4,29.88,SSE,151,3.0,3.0,93,0.00,,,0.00,Wunderground v.1.15,2013-10-02 09:36:00,
2013-10-02 04:45:00,72.6,70.5,29.88,SSE,157,6.0,8.0,93,0.00,,,0.00,Wunderground v.1.15,2013-10-02 09:45:00,
2013-10-02 04:50:00,72.7,70.6,29.88,SSE,150,6.0,11.0,93,0.00,,,0.00,Wunderground v.1.15,2013-10-02 09:50:00,
2013-10-02 04:55:00,72.7,70.6,29.88,SSE,159,4.0,11.0,93,0.00,,,0.00,Wunderground v.1.15,2013-10-02 09:55:00,
2013-10-02 05:01:00,72.7,70.6,29.88,SE,143,3.0,8.0,93,0.00,,,0.00,Wunderground v.1.15,2013-10-02 10:01:00,
2013-10-02 05:10:00,72.8,70.7,29.88,SSE,165,3.0,3.0,93,0.00,,,0.00,Wunderground v.1.15,2013-10-02 10:10:00,
2013-10-02 05:15:00,72.9,70.8,29.88,SSE,156,2.0,9.0,93,0.00,,,0.00,Wunderground v.1.15,2013-10-02 10:15:00,
2013-10-02 05:25:00,73.1,71.0,29.88,South,171,4.0,9.0,93,0.00,,,0.00,Wunderground v.1.15,2013-10-02 10:25:00,
2013-10-02 05:30:00,73.3,71.2,29.88,South,180,7.0,10.0,93,0.00,,,0.00,Wunderground v.1.15,2013-10-02 10:30:00,
2013-10-02 05:35:00,73.4,70.9,29.88,South,176,8.0,10.0,92,0.00,,,0.00,Wunderground v.1.15,2013-10-02 10:35:00,
2013-10-02 05:40:00,73.4,70.9,29.88,South,169,8.0,8.0,92,0.00,,,0.00,Wunderground v.1.15,2013-10-02 10:40:00,
2013-10-02 05:46:00,73.5,70.7,29.88,SSE,164,9.0,10.0,91,0.00,,,0.00,Wunderground v.1.15,2013-10-02 10:46:00,
2013-10-02 05:55:00,73.5,70.7,29.88,South,183,7.0,14.0,91,0.00,,,0.00,Wunderground v.1.15,2013-10-02 10:55:00,
2013-10-02 06:01:00,73.5,70.7,29.89,SE,136,8.0,8.0,91,0.00,,,0.00,Wunderground v.1.15,2013-10-02 11:01:00,
2013-10-02 06:10:00,73.4,70.6,29.89,SSE,161,7.0,9.0,91,0.00,,,0.00,Wunderground v.1.15,2013-10-02 11:10:00,
2013-10-02 06:15:00,73.4,70.6,29.89,SSE,160,6.0,9.0,91,0.00,,,0.00,Wunderground v.1.15,2013-10-02 11:15:00,
2013-10-02 06:20:00,73.3,70.2,29.89,SSE,168,5.0,5.0,90,0.00,,,0.00,Wunderground v.1.15,2013-10-02 11:20:00,
2013-10-02 06:25:00,73.2,70.1,29.90,South,180,4.0,5.0,90,0.00,,,0.00,Wunderground v.1.15,2013-10-02 11:25:00,
2013-10-02 06:31:00,73.2,70.1,29.90,South,178,4.0,4.0,90,0.00,,,0.00,Wunderground v.1.15,2013-10-02 11:31:00,
2013-10-02 06:40:00,73.2,70.4,29.90,SSE,158,4.0,6.0,91,0.00,,,0.00,Wunderground v.1.15,2013-10-02 11:40:00,
2013-10-02 06:45:00,73.1,70.3,29.90,SE,143,4.0,6.0,91,0.00,,,0.00,Wunderground v.1.15,2013-10-02 11:45:00,
2013-10-02 06:50:00,73.1,70.3,29.90,SE,127,4.0,16.0,91,0.00,,,0.00,Wunderground v.1.15,2013-10-02 11:50:00,
2013-10-02 06:55:00,73.1,70.3,29.90,SE,141,5.0,16.0,91,0.00,,,0.00,Wunderground v.1.15,2013-10-02 11:55:00,
2013-10-02 07:01:00,73.0,70.2,29.91,SE,142,6.0,14.0,91,0.00,,,0.00,Wunderground v.1.15,2013-10-02 12:01:00,
2013-10-02 07:10:00,73.0,70.2,29.91,SSE,157,6.0,11.0,91,0.00,,,0.00,Wunderground v.1.15,2013-10-02 12:10:00,
2013-10-02 07:16:00,73.0,70.2,29.91,SSE,157,6.0,11.0,91,0.00,,,0.00,Wunderground v.1.15,2013-10-02 12:16:00,
2013-10-02 07:25:00,73.0,70.2,29.91,SSE,150,6.0,6.0,91,0.00,,,0.00,Wunderground v.1.15,2013-10-02 12:25:00,
2013-10-02 07:30:00,73.0,70.2,29.91,SE,146,6.0,6.0,91,0.00,,,0.00,Wunderground v.1.15,2013-10-02 12:30:00,
2013-10-02 07:35:00,73.1,70.3,29.91,SSE,153,5.0,6.0,91,0.00,,,0.00,Wunderground v.1.15,2013-10-02 12:35:00,
2013-10-02 07:41:00,73.1,70.3,29.91,SE,143,6.0,9.0,91,0.00,,,0.00,Wunderground v.1.15,2013-10-02 12:41:00,
2013-10-02 07:46:00,73.1,70.3,29.91,SSE,155,5.0,9.0,91,0.00,,,0.00,Wunderground v.1.15,2013-10-02 12:46:00,
2013-10-02 07:55:00,73.1,70.3,29.92,SSE,166,4.0,5.0,91,0.00,,,0.00,Wunderground v.1.15,2013-10-02 12:55:00,
2013-10-02 08:01:00,73.2,70.4,29.92,SSE,155,6.0,6.0,91,0.00,,,0.00,Wunderground v.1.15,2013-10-02 13:01:00,
2013-10-02 08:10:00,73.3,70.5,29.92,SSE,158,5.0,5.0,91,0.00,,,0.00,Wunderground v.1.15,2013-10-02 13:10:00,
2013-10-02 08:15:00,73.3,70.5,29.92,SSE,165,4.0,5.0,91,0.00,,,0.00,Wunderground v.1.15,2013-10-02 13:15:00,
2013-10-02 08:20:00,73.4,70.6,29.92,SSE,162,4.0,9.0,91,0.00,,,0.00,Wunderground v.1.15,2013-10-02 13:20:00,
2013-10-02 08:26:00,73.5,70.7,29.92,SSE,155,4.0,9.0,91,0.00,,,0.00,Wunderground v.1.15,2013-10-02 13:26:00,
2013-10-02 08:35:00,73.6,70.8,29.92,SSE,161,5.0,11.0,91,0.00,,,0.00,Wunderground v.1.15,2013-10-02 13:35:00,
2013-10-02 08:40:00,73.7,70.9,29.92,SSE,167,7.0,7.0,91,0.00,,,0.00,Wunderground v.1.15,2013-10-02 13:40:00,
2013-10-02 08:45:00,73.8,70.7,29.92,SSE,148,6.0,7.0,90,0.00,,,0.00,Wunderground v.1.15,2013-10-02 13:45:00,
2013-10-02 08:50:00,73.9,70.8,29.92,SSE,162,5.0,5.0,90,0.00,,,0.00,Wunderground v.1.15,2013-10-02 13:50:00,
2013-10-02 08:56:00,74.0,70.9,29.93,SSE,160,4.0,5.0,90,0.00,,,0.00,Wunderground v.1.15,2013-10-02 13:56:00,
2013-10-02 09:01:00,74.0,70.9,29.92,SE,140,3.0,6.0,90,0.00,,,0.00,Wunderground v.1.15,2013-10-02 14:01:00,
2013-10-02 09:11:00,74.6,71.5,29.93,SE,144,6.0,13.0,90,0.00,,,0.00,Wunderground v.1.15,2013-10-02 14:11:00,
2013-10-02 09:20:00,76.3,71.8,29.93,South,183,8.0,8.0,86,0.00,,,0.00,Wunderground v.1.15,2013-10-02 14:20:00,
2013-10-02 09:25:00,76.6,71.7,29.93,SSE,163,7.0,9.0,85,0.00,,,0.00,Wunderground v.1.15,2013-10-02 14:25:00,
2013-10-02 09:30:00,77.1,71.9,29.93,SSE,159,7.0,7.0,84,0.00,,,0.00,Wunderground v.1.15,2013-10-02 14:30:00,
2013-10-02 09:35:00,77.5,71.9,29.93,SSE,162,7.0,7.0,83,0.00,,,0.00,Wunderground v.1.15,2013-10-02 14:35:00,
2013-10-02 09:41:00,77.8,71.9,29.93,South,172,7.0,7.0,82,0.00,,,0.00,Wunderground v.1.15,2013-10-02 14:41:00,
2013-10-02 09:50:00,77.9,71.6,29.94,South,173,6.0,6.0,81,0.00,,,0.00,Wunderground v.1.15,2013-10-02 14:50:00,
2013-10-02 09:55:00,77.5,71.2,29.93,South,172,5.0,6.0,81,0.00,,,0.00,Wunderground v.1.15,2013-10-02 14:55:00,
2013-10-02 10:01:00,77.9,71.6,29.93,SSE,164,4.0,4.0,81,0.00,,,0.00,Wunderground v.1.15,2013-10-02 15:01:00,
2013-10-02 10:10:00,77.9,71.6,29.94,SSE,148,5.0,5.0,81,0.00,,,0.00,Wunderground v.1.15,2013-10-02 15:10:00,
2013-10-02 10:15:00,78.5,72.2,29.94,SSE,168,6.0,8.0,81,0.00,,,0.00,Wunderground v.1.15,2013-10-02 15:15:00,
2013-10-02 10:21:00,78.9,71.8,29.94,SSE,156,8.0,8.0,79,0.00,,,0.00,Wunderground v.1.15,2013-10-02 15:21:00,
2013-10-02 10:26:00,78.9,72.2,29.94,SE,137,6.0,8.0,80,0.00,,,0.00,Wunderground v.1.15,2013-10-02 15:26:00,
2013-10-02 10:35:00,78.8,72.1,29.94,South,169,6.0,6.0,80,0.00,,,0.00,Wunderground v.1.15,2013-10-02 15:35:00,
2013-10-02 10:40:00,79.1,72.0,29.94,SSE,149,6.0,6.0,79,0.00,,,0.00,Wunderground v.1.15,2013-10-02 15:40:00,
2013-10-02 10:45:00,79.4,71.9,29.94,SSW,202,7.0,7.0,78,0.00,,,0.00,Wunderground v.1.15,2013-10-02 15:45:00,
2013-10-02 10:51:00,79.8,71.9,29.94,SSE,157,6.0,6.0,77,0.00,,,0.00,Wunderground v.1.15,2013-10-02 15:51:00,
2013-10-02 11:01:00,80.2,72.3,29.94,SSE,167,6.0,7.0,77,0.00,,,0.00,Wunderground v.1.15,2013-10-02 16:01:00,
2013-10-02 11:11:00,80.3,72.4,29.94,SE,128,6.0,9.0,77,0.00,,,0.00,Wunderground v.1.15,2013-10-02 16:11:00,
2013-10-02 11:20:00,80.6,72.3,29.94,SSE,162,7.0,8.0,76,0.00,,,0.00,Wunderground v.1.15,2013-10-02 16:20:00,
2013-10-02 11:25:00,81.8,73.1,29.93,SE,140,8.0,8.0,75,0.00,,,0.00,Wunderground v.1.15,2013-10-02 16:25:00,
2013-10-02 11:30:00,81.7,72.2,29.93,South,190,8.0,9.0,73,0.00,,,0.00,Wunderground v.1.15,2013-10-02 16:30:00,
2013-10-02 11:36:00,82.1,72.6,29.93,SSE,154,8.0,9.0,73,0.00,,,0.00,Wunderground v.1.15,2013-10-02 16:36:00,
2013-10-02 11:45:00,82.1,72.2,29.93,South,190,7.0,8.0,72,0.00,,,0.00,Wunderground v.1.15,2013-10-02 16:45:00,
2013-10-02 11:50:00,81.8,72.3,29.93,South,171,6.0,6.0,73,0.00,,,0.00,Wunderground v.1.15,2013-10-02 16:50:00,
2013-10-02 11:55:00,82.0,72.5,29.93,SSE,159,5.0,6.0,73,0.00,,,0.00,Wunderground v.1.15,2013-10-02 16:55:00,
2013-10-02 12:01:00,83.4,73.4,29.92,South,183,5.0,7.0,72,0.00,,,0.00,Wunderground v.1.15,2013-10-02 17:01:00,
2013-10-02 12:10:00,83.4,72.6,29.92,South,174,5.0,7.0,70,0.00,,,0.00,Wunderground v.1.15,2013-10-02 17:10:00,
2013-10-02 12:16:00,83.3,72.5,29.92,South,177,5.0,7.0,70,0.00,,,0.00,Wunderground v.1.15,2013-10-02 17:16:00,
2013-10-02 12:21:00,83.3,72.9,29.92,South,177,4.0,13.0,71,0.00,,,0.00,Wunderground v.1.15,2013-10-02 17:21:00,
2013-10-02 12:26:00,83.5,73.5,29.92,SSE,148,3.0,13.0,72,0.00,,,0.00,Wunderground v.1.15,2013-10-02 17:26:00,
2013-10-02 12:35:00,84.5,72.8,29.91,SSE,149,4.0,10.0,68,0.00,,,0.00,Wunderground v.1.15,2013-10-02 17:35:00,
2013-10-02 12:40:00,85.1,73.3,29.91,SE,140,6.0,7.0,68,0.00,,,0.00,Wunderground v.1.15,2013-10-02 17:40:00,
2013-10-02 12:46:00,85.1,72.5,29.91,SSW,200,4.0,7.0,66,0.00,,,0.00,Wunderground v.1.15,2013-10-02 17:46:00,
2013-10-02 12:51:00,84.9,71.8,29.91,South,191,3.0,3.0,65,0.00,,,0.00,Wunderground v.1.15,2013-10-02 17:51:00,
2013-10-02 12:56:00,84.7,72.1,29.90,SSE,160,4.0,9.0,66,0.00,,,0.00,Wunderground v.1.15,2013-10-02 17:56:00,
2013-10-02 13:01:00,85.1,72.9,29.90,SSE,162,5.0,9.0,67,0.00,,,0.00,Wunderground v.1.15,2013-10-02 18:01:00,
2013-10-02 13:10:00,84.5,72.3,29.90,South,179,7.0,7.0,67,0.00,,,0.00,Wunderground v.1.15,2013-10-02 18:10:00,
2013-10-02 13:15:00,86.0,72.9,29.90,South,172,6.0,7.0,65,0.00,,,0.00,Wunderground v.1.15,2013-10-02 18:15:00,
2013-10-02 13:20:00,86.0,71.5,29.90,South,189,5.0,5.0,62,0.00,,,0.00,Wunderground v.1.15,2013-10-02 18:20:00,
2013-10-02 13:25:00,85.0,71.9,29.90,ESE,121,7.0,7.0,65,0.00,,,0.00,Wunderground v.1.15,2013-10-02 18:25:00,
2013-10-02 13:30:00,85.6,72.5,29.89,SSW,213,7.0,10.0,65,0.00,,,0.00,Wunderground v.1.15,2013-10-02 18:30:00,
2013-10-02 13:36:00,86.0,72.4,29.88,South,175,7.0,12.0,64,0.00,,,0.00,Wunderground v.1.15,2013-10-02 18:36:00,
2013-10-02 13:45:00,85.4,72.7,29.88,ESE,114,6.0,11.0,66,0.00,,,0.00,Wunderground v.1.15,2013-10-02 18:45:00,
2013-10-02 13:50:00,86.7,73.1,29.87,SE,142,8.0,8.0,64,0.00,,,0.00,Wunderground v.1.15,2013-10-02 18:50:00,
2013-10-02 13:55:00,87.9,72.8,29.87,South,182,8.0,8.0,61,0.00,,,0.00,Wunderground v.1.15,2013-10-02 18:55:00,
2013-10-02 14:01:00,87.0,73.3,29.87,SSE,157,7.0,11.0,64,0.00,,,0.00,Wunderground v.1.15,2013-10-02 19:01:00,
2013-10-02 14:10:00,86.4,72.3,29.86,South,175,7.0,8.0,63,0.00,,,0.00,Wunderground v.1.15,2013-10-02 19:10:00,
2013-10-02 14:15:00,87.1,73.0,29.86,SSE,153,5.0,9.0,63,0.00,,,0.00,Wunderground v.1.15,2013-10-02 19:15:00,
2013-10-02 14:21:00,86.9,71.8,29.86,South,180,5.0,11.0,61,0.00,,,0.00,Wunderground v.1.15,2013-10-02 19:21:00,
2013-10-02 14:30:00,87.1,72.5,29.85,SE,136,6.0,10.0,62,0.00,,,0.00,Wunderground v.1.15,2013-10-02 19:30:00,
2013-10-02 14:35:00,88.5,73.3,29.85,ESE,120,8.0,10.0,61,0.00,,,0.00,Wunderground v.1.15,2013-10-02 19:35:00,
2013-10-02 14:41:00,88.6,72.4,29.84,SSE,163,7.0,7.0,59,0.00,,,0.00,Wunderground v.1.15,2013-10-02 19:41:00,
2013-10-02 14:46:00,88.4,72.2,29.84,South,181,6.0,7.0,59,0.00,,,0.00,Wunderground v.1.15,2013-10-02 19:46:00,
2013-10-02 14:51:00,88.8,72.1,29.84,SE,138,8.0,10.0,58,0.00,,,0.00,Wunderground v.1.15,2013-10-02 19:51:00,
2013-10-02 15:01:00,88.1,71.5,29.84,South,173,7.0,7.0,58,0.00,,,0.00,Wunderground v.1.15,2013-10-02 20:01:00,
2013-10-02 15:10:00,89.2,72.0,29.84,SSE,155,7.0,7.0,57,0.00,,,0.00,Wunderground v.1.15,2013-10-02 20:10:00,
2013-10-02 15:15:00,89.3,71.0,29.83,SE,140,8.0,8.0,55,0.00,,,0.00,Wunderground v.1.15,2013-10-02 20:15:00,
2013-10-02 15:20:00,88.9,71.7,29.83,SE,141,8.0,10.0,57,0.00,,,0.00,Wunderground v.1.15,2013-10-02 20:20:00,
2013-10-02 15:25:00,89.4,72.7,29.83,SSE,150,8.0,10.0,58,0.00,,,0.00,Wunderground v.1.15,2013-10-02 20:25:00,
2013-10-02 15:31:00,90.4,72.6,29.83,SSE,155,8.0,11.0,56,0.00,,,0.00,Wunderground v.1.15,2013-10-02 20:31:00,
2013-10-02 15:36:00,90.0,71.1,29.83,SSE,166,7.0,11.0,54,0.00,,,0.00,Wunderground v.1.15,2013-10-02 20:36:00,
2013-10-02 15:45:00,88.9,71.7,29.83,SSE,149,7.0,12.0,57,0.00,,,0.00,Wunderground v.1.15,2013-10-02 20:45:00,
2013-10-02 15:50:00,89.4,71.1,29.82,SSE,165,9.0,12.0,55,0.00,,,0.00,Wunderground v.1.15,2013-10-02 20:50:00,
2013-10-02 15:55:00,89.0,70.7,29.82,South,173,10.0,12.0,55,0.00,,,0.00,Wunderground v.1.15,2013-10-02 20:55:00,
2013-10-02 16:01:00,88.8,71.1,29.82,SSE,152,8.0,11.0,56,0.00,,,0.00,Wunderground v.1.15,2013-10-02 21:01:00,
2013-10-02 16:10:00,89.5,71.2,29.82,SE,125,9.0,9.0,55,0.00,,,0.00,Wunderground v.1.15,2013-10-02 21:10:00,
2013-10-02 16:16:00,89.9,71.0,29.82,ESE,120,9.0,13.0,54,0.00,,,0.00,Wunderground v.1.15,2013-10-02 21:16:00,
2013-10-02 16:25:00,87.9,70.8,29.82,SSE,150,9.0,14.0,57,0.00,,,0.00,Wunderground v.1.15,2013-10-02 21:25:00,
2013-10-02 16:30:00,88.2,72.1,29.82,ESE,123,11.0,14.0,59,0.00,,,0.00,Wunderground v.1.15,2013-10-02 21:30:00,
2013-10-02 16:35:00,87.7,72.1,29.82,ESE,112,11.0,14.0,60,0.00,,,0.00,Wunderground v.1.15,2013-10-02 21:35:00,
2013-10-02 16:40:00,86.9,72.3,29.82,SE,138,9.0,9.0,62,0.00,,,0.00,Wunderground v.1.15,2013-10-02 21:40:00,
2013-10-02 16:46:00,86.4,72.3,29.82,SE,140,9.0,9.0,63,0.00,,,0.00,Wunderground v.1.15,2013-10-02 21:46:00,
2013-10-02 16:55:00,86.2,73.0,29.83,SSE,153,9.0,9.0,65,0.00,,,0.00,Wunderground v.1.15,2013-10-02 21:55:00,
2013-10-02 17:01:00,86.6,72.5,29.82,SSE,165,10.0,10.0,63,0.00,,,0.00,Wunderground v.1.15,2013-10-02 22:01:00,
2013-10-02 17:10:00,87.2,72.1,29.82,SSE,163,10.0,10.0,61,0.00,,,0.00,Wunderground v.1.15,2013-10-02 22:10:00,
2013-10-02 17:15:00,87.4,72.3,29.82,SE,128,10.0,10.0,61,0.00,,,0.00,Wunderground v.1.15,2013-10-02 22:15:00,
2013-10-02 17:20:00,87.4,72.3,29.82,SSE,158,9.0,17.0,61,0.00,,,0.00,Wunderground v.1.15,2013-10-02 22:20:00,
2013-10-02 17:26:00,87.2,72.1,29.82,SE,140,9.0,17.0,61,0.00,,,0.00,Wunderground v.1.15,2013-10-02 22:26:00,
2013-10-02 17:31:00,87.0,71.4,29.82,SSE,153,10.0,11.0,60,0.00,,,0.00,Wunderground v.1.15,2013-10-02 22:31:00,
2013-10-02 17:40:00,86.9,71.3,29.82,SE,138,10.0,13.0,60,0.00,,,0.00,Wunderground v.1.15,2013-10-02 22:40:00,
2013-10-02 17:45:00,87.0,71.4,29.82,SE,137,9.0,13.0,60,0.00,,,0.00,Wunderground v.1.15,2013-10-02 22:45:00,
2013-10-02 17:50:00,87.1,72.0,29.82,SE,146,6.0,6.0,61,0.00,,,0.00,Wunderground v.1.15,2013-10-02 22:50:00,
2013-10-02 17:56:00,87.1,72.0,29.82,SE,140,5.0,8.0,61,0.00,,,0.00,Wunderground v.1.15,2013-10-02 22:56:00,
2013-10-02 18:01:00,86.7,71.6,29.82,SE,143,6.0,6.0,61,0.00,,,0.00,Wunderground v.1.15,2013-10-02 23:01:00,
2013-10-02 18:11:00,86.0,71.0,29.82,SE,137,9.0,9.0,61,0.00,,,0.00,Wunderground v.1.15,2013-10-02 23:11:00,
2013-10-02 18:16:00,85.6,71.1,29.82,ESE,123,9.0,9.0,62,0.00,,,0.00,Wunderground v.1.15,2013-10-02 23:16:00,
2013-10-02 18:25:00,85.2,71.2,29.82,South,188,8.0,14.0,63,0.00,,,0.00,Wunderground v.1.15,2013-10-02 23:25:00,
2013-10-02 18:30:00,85.1,71.1,29.82,SE,130,9.0,9.0,63,0.00,,,0.00,Wunderground v.1.15,2013-10-02 23:30:00,
2013-10-02 18:35:00,85.0,71.0,29.82,SSE,156,8.0,9.0,63,0.00,,,0.00,Wunderground v.1.15,2013-10-02 23:35:00,
2013-10-02 18:41:00,84.8,71.3,29.82,SE,144,7.0,7.0,64,0.00,,,0.00,Wunderground v.1.15,2013-10-02 23:41:00,
2013-10-02 18:50:00,84.2,71.6,29.82,SSE,150,8.0,8.0,66,0.00,,,0.00,Wunderground v.1.15,2013-10-02 23:50:00,
2013-10-02 18:55:00,83.8,71.2,29.82,SSE,148,7.0,11.0,66,0.00,,,0.00,Wunderground v.1.15,2013-10-02 23:55:00,
2013-10-02 19:01:00,83.4,71.3,29.82,SE,138,6.0,6.0,67,0.00,,,0.00,Wunderground v.1.15,2013-10-03 00:01:00,
2013-10-02 19:10:00,82.8,71.2,29.81,SE,134,5.0,8.0,68,0.00,,,0.00,Wunderground v.1.15,2013-10-03 00:10:00,
2013-10-02 19:15:00,82.4,71.2,29.82,SE,146,7.0,8.0,69,0.00,,,0.00,Wunderground v.1.15,2013-10-03 00:15:00,
2013-10-02 19:21:00,82.2,71.0,29.82,SE,141,7.0,12.0,69,0.00,,,0.00,Wunderground v.1.15,2013-10-03 00:21:00,
2013-10-02 19:26:00,82.0,71.2,29.82,SSE,150,9.0,12.0,70,0.00,,,0.00,Wunderground v.1.15,2013-10-03 00:26:00,
2013-10-02 19:35:00,81.6,71.3,29.82,SE,144,8.0,11.0,71,0.00,,,0.00,Wunderground v.1.15,2013-10-03 00:35:00,
2013-10-02 19:40:00,81.4,71.1,29.82,SE,142,5.0,9.0,71,0.00,,,0.00,Wunderground v.1.15,2013-10-03 00:40:00,
2013-10-02 19:45:00,81.2,70.9,29.82,SSE,148,6.0,9.0,71,0.00,,,0.00,Wunderground v.1.15,2013-10-03 00:45:00,
2013-10-02 19:51:00,81.0,71.1,29.83,SSE,150,6.0,8.0,72,0.00,,,0.00,Wunderground v.1.15,2013-10-03 00:51:00,
2013-10-02 19:56:00,80.8,70.9,29.83,SE,146,6.0,8.0,72,0.00,,,0.00,Wunderground v.1.15,2013-10-03 00:56:00,
2013-10-02 20:01:00,80.6,70.7,29.83,SE,140,6.0,6.0,72,0.00,,,0.00,Wunderground v.1.15,2013-10-03 01:01:00,
2013-10-02 20:11:00,80.3,70.4,29.83,SE,142,5.0,5.0,72,0.00,,,0.00,Wunderground v.1.15,2013-10-03 01:11:00,
2013-10-02 20:16:00,80.2,70.4,29.83,SE,129,5.0,9.0,72,0.00,,,0.00,Wunderground v.1.15,2013-10-03 01:16:00,
2013-10-02 20:25:00,79.7,70.3,29.83,SE,132,4.0,7.0,73,0.00,,,0.00,Wunderground v.1.15,2013-10-03 01:25:00,
2013-10-02 20:30:00,79.5,70.1,29.83,SE,142,6.0,10.0,73,0.00,,,0.00,Wunderground v.1.15,2013-10-03 01:30:00,
2013-10-02 20:36:00,79.3,69.9,29.84,SE,138,6.0,10.0,73,0.00,,,0.00,Wunderground v.1.15,2013-10-03 01:36:00,
2013-10-02 20:45:00,79.0,70.0,29.84,SE,138,5.0,6.0,74,0.00,,,0.00,Wunderground v.1.15,2013-10-03 01:45:00,
2013-10-02 20:50:00,78.9,69.9,29.85,SE,138,5.0,5.0,74,0.00,,,0.00,Wunderground v.1.15,2013-10-03 01:50:00,
2013-10-02 20:55:00,78.7,69.7,29.85,SE,134,4.0,5.0,74,0.00,,,0.00,Wunderground v.1.15,2013-10-03 01:55:00,
2013-10-02 21:01:00,78.6,70.0,29.85,SE,141,4.0,10.0,75,0.00,,,0.00,Wunderground v.1.15,2013-10-03 02:01:00,
2013-10-02 21:10:00,78.4,69.8,29.86,SE,146,5.0,6.0,75,0.00,,,0.00,Wunderground v.1.15,2013-10-03 02:10:00,
2013-10-02 21:16:00,78.3,70.1,29.86,SSE,148,5.0,6.0,76,0.00,,,0.00,Wunderground v.1.15,2013-10-03 02:16:00,
2013-10-02 21:21:00,78.2,70.0,29.86,SSE,150,7.0,7.0,76,0.00,,,0.00,Wunderground v.1.15,2013-10-03 02:21:00,
2013-10-02 21:26:00,78.2,70.0,29.86,SE,138,7.0,7.0,76,0.00,,,0.00,Wunderground v.1.15,2013-10-03 02:26:00,
2013-10-02 21:35:00,78.1,70.3,29.86,SE,146,6.0,9.0,77,0.00,,,0.00,Wunderground v.1.15,2013-10-03 02:35:00,
2013-10-02 21:41:00,78.0,70.2,29.86,SSE,156,6.0,9.0,77,0.00,,,0.00,Wunderground v.1.15,2013-10-03 02:41:00,
2013-10-02 21:46:00,77.9,70.1,29.87,SE,127,6.0,9.0,77,0.00,,,0.00,Wunderground v.1.15,2013-10-03 02:46:00,
2013-10-02 21:55:00,77.7,70.3,29.87,SE,143,7.0,11.0,78,0.00,,,0.00,Wunderground v.1.15,2013-10-03 02:55:00,
2013-10-02 22:01:00,77.5,70.1,29.87,SE,146,7.0,8.0,78,0.00,,,0.00,Wunderground v.1.15,2013-10-03 03:01:00,
2013-10-02 22:10:00,77.3,70.3,29.87,SE,143,7.0,7.0,79,0.00,,,0.00,Wunderground v.1.15,2013-10-03 03:10:00,
2013-10-02 22:15:00,77.1,70.5,29.87,SSE,154,7.0,7.0,80,0.00,,,0.00,Wunderground v.1.15,2013-10-03 03:15:00,
2013-10-02 22:20:00,77.0,70.4,29.87,SE,146,7.0,8.0,80,0.00,,,0.00,Wunderground v.1.15,2013-10-03 03:20:00,
2013-10-02 22:26:00,76.9,70.3,29.87,SE,144,7.0,8.0,80,0.00,,,0.00,Wunderground v.1.15,2013-10-03 03:26:00,
2013-10-02 22:31:00,76.7,70.4,29.87,SSE,147,8.0,8.0,81,0.00,,,0.00,Wunderground v.1.15,2013-10-03 03:31:00,
2013-10-02 22:40:00,76.6,70.3,29.87,SSE,151,8.0,8.0,81,0.00,,,0.00,Wunderground v.1.15,2013-10-03 03:40:00,
2013-10-02 22:45:00,76.6,70.3,29.87,SE,138,7.0,14.0,81,0.00,,,0.00,Wunderground v.1.15,2013-10-03 03:45:00,
2013-10-02 22:50:00,76.5,70.2,29.87,SSE,151,7.0,10.0,81,0.00,,,0.00,Wunderground v.1.15,2013-10-03 03:50:00,
2013-10-02 22:56:00,76.4,70.1,29.87,SE,142,6.0,10.0,81,0.00,,,0.00,Wunderground v.1.15,2013-10-03 03:56:00,
2013-10-02 23:01:00,76.3,70.0,29.87,SSE,159,7.0,8.0,81,0.00,,,0.00,Wunderground v.1.15,2013-10-03 04:01:00,
2013-10-02 23:11:00,76.1,69.8,29.87,SE,136,7.0,8.0,81,0.00,,,0.00,Wunderground v.1.15,2013-10-03 04:11:00,
2013-10-02 23:16:00,76.0,69.7,29.87,SSE,154,6.0,9.0,81,0.00,,,0.00,Wunderground v.1.15,2013-10-03 04:16:00,
2013-10-02 23:25:00,75.8,69.6,29.87,SSE,148,8.0,10.0,81,0.00,,,0.00,Wunderground v.1.15,2013-10-03 04:25:00,
2013-10-02 23:30:00,75.8,69.6,29.87,SSE,150,7.0,7.0,81,0.00,,,0.00,Wunderground v.1.15,2013-10-03 04:30:00,
2013-10-02 23:36:00,75.7,69.8,29.87,SE,146,6.0,9.0,82,0.00,,,0.00,Wunderground v.1.15,2013-10-03 04:36:00,
2013-10-02 23:45:00,75.4,69.9,29.87,SE,146,5.0,6.0,83,0.00,,,0.00,Wunderground v.1.15,2013-10-03 04:45:00,
2013-10-02 23:50:00,75.3,69.8,29.87,SE,137,4.0,11.0,83,0.00,,,0.00,Wunderground v.1.15,2013-10-03 04:50:00,
2013-10-02 23:55:00,75.1,69.6,29.87,SSE,163,6.0,11.0,83,0.00,,,0.00,Wunderground v.1.15,2013-10-03 04:55:00,